Preview of NWS' New Version of Forecast
This preview is not operational and should not be used for support decisions.

Regional Weather Roundup (RWR)

Issued by National Weather Service (NWS)

                            
000
ASUS43 KBIS 180310
RWRND 

NORTH DAKOTA REGIONAL WEATHER ROUNDUP
NATIONAL WEATHER SERVICE BISMARCK ND
900 PM CST SUN FEB 17 2019

NOTE: "FAIR" INDICATES FEW OR NO CLOUDS BELOW 12,000 FEET WITH NO
SIGNIFICANT WEATHER AND/OR OBSTRUCTIONS TO VISIBILITY.


NDZ001>003-009>011-017-180400-
NORTHWEST NORTH DAKOTA
  
CITY           SKY/WX    TMP DP  RH WIND       PRES   REMARKS
WILLISTON      CLOUDY     6   0  76 N5        30.37R WCI  -3          
MINOT          CLOUDY     5   0  79 NW12      30.36R WCI -11          
MINOT AFB      CLOUDY     4  -1  79 NW9       30.35R WCI -10          
$$
 
NDZ018>021-031>035-040>046-180400-
SOUTHWEST NORTH DAKOTA
  
CITY           SKY/WX    TMP DP  RH WIND       PRES   REMARKS
BISMARCK       CLOUDY     5   0  79 NW6       30.34R WCI  -6          
DICKINSON      CLOUDY     5   0  79 NW9       30.26R WCI  -9          
GARRISON         N/A      3  -1  83 N10       30.33R WCI -12          
HETTINGER ARPT CLOUDY     2  -4  76 NW17      30.28R WCI -18          
$$
 
NDZ004>008-012>016-024-026-027-054-180400-
NORTHEAST NORTH DAKOTA
  
CITY           SKY/WX    TMP DP  RH WIND       PRES   REMARKS
GRAND FORKS    CLEAR     -1  -6  79 N13       30.35R WCI -19          
GRND FRKS AFB  MOCLDY     0  -6  77 N12       30.35R WCI -17          
DEVILS LAKE    CLOUDY     2  -3  80 N13       30.35R WCI -15          
$$
 
NDZ022-023-025-028>030-036>039-047>053-180400-
SOUTHEAST NORTH DAKOTA
  
CITY           SKY/WX    TMP DP  RH WIND       PRES   REMARKS
FARGO          CLEAR      1  -3  83 N15       30.30R WCI -18          
JAMESTOWN      CLOUDY     6   2  83 N12       30.29R WCI  -9          
$$